Lewes DE-Nassau DE USA current weather conditions

sailwx.info

Wind from 142 at 0 knots gusting 2

Air temperature 14.8° C
Dewpoint 2.3° C

Last reported at 2020-Feb-24 17:05 UTC.
Time now 2020-Feb-24 17:32 UTC

Location: N 38°43' W 075°09'.
View on Google Maps.

See reports from other nearby stations

  
Tides and Currents Weather Stations Pressure Air Temp Water Temp Dewpoint Dewpoint Depression Visibility Wind Speed Wind Dir Waves Ship Positions
date/time (UTC)wind fromknots sea level pressurealtimeterstation pressurevisibilityair tempwater tempwave heightnotes
2020-Feb-24 17:05 142 0 gusting 2 14.8
2020-Feb-24 17:00 187 3 gusting 6 14.3
2020-Feb-24 16:55 189 4 gusting 7 14.7
2020-Feb-24 16:50 192 4 gusting 7 14.8
2020-Feb-24 16:45 169 1 gusting 4 15.3
2020-Feb-24 16:40 167 1 gusting 4 15.0
2020-Feb-24 16:35 145 1 gusting 4 15.0
2020-Feb-24 16:30 143 1 gusting 3 15.0
2020-Feb-24 16:25 165 1 gusting 5 14.6
2020-Feb-24 16:20 157 1 gusting 3 14.4
2020-Feb-24 16:15 181 2 gusting 4 14.1
2020-Feb-24 16:10 170 2 gusting 5 13.9
2020-Feb-24 16:05 168 2 gusting 3 13.4
2020-Feb-24 16:00 204 3 gusting 5 13.2
2020-Feb-24 15:55 198 3 gusting 5 13.1
2020-Feb-24 15:50 206 3 gusting 5 13.2
2020-Feb-24 15:45 196 3 gusting 4 13.2
2020-Feb-24 15:40 195 2 gusting 3 13.2
2020-Feb-24 15:35 215 3 gusting 5 12.9
2020-Feb-24 15:30 192 3 gusting 6 12.8
2020-Feb-24 15:25 245 2 gusting 4 12.6
2020-Feb-24 15:20 239 3 gusting 4 12.2
2020-Feb-24 15:15 233 2 gusting 4 12.1
2020-Feb-24 15:10 222 2 gusting 4 11.8
2020-Feb-24 15:05 226 3 gusting 5 11.5
2020-Feb-24 15:00 215 2 gusting 5 11.4
2020-Feb-24 14:55 231 2 gusting 4 11.2
2020-Feb-24 14:50 225 3 gusting 4 11.2
2020-Feb-24 14:45 222 2 gusting 5 11.1
2020-Feb-24 14:40 255 3 gusting 4 10.8
2020-Feb-24 14:35 264 3 gusting 4 10.6
2020-Feb-24 14:30 263 3 gusting 5 10.4
2020-Feb-24 14:25 253 3 gusting 6 10.3
2020-Feb-24 14:20 238 4 gusting 6 10.1
2020-Feb-24 14:15 243 3 gusting 5 9.7
2020-Feb-24 14:10 248 3 gusting 4 9.4
2020-Feb-24 14:05 243 3 gusting 5 9.3
2020-Feb-24 14:00 251 2 gusting 4 9.2
2020-Feb-24 13:55 240 2 gusting 5 9.0
2020-Feb-24 13:50 235 2 gusting 4 8.8
2020-Feb-24 13:45 222 2 gusting 4 8.6
2020-Feb-24 13:40 225 2 gusting 4 8.4
2020-Feb-24 13:35 246 3 gusting 4 8.3
2020-Feb-24 13:30 211 2 gusting 4 8.0
2020-Feb-24 13:25 228 1 gusting 3 7.7
2020-Feb-24 13:20 178 0 gusting 1 7.1
2020-Feb-24 13:15 194 1 gusting 2 6.8
2020-Feb-24 13:10 208 1 gusting 2 6.3
2020-Feb-24 13:05 195 1 gusting 2 5.8
2020-Feb-24 13:00 175 1 gusting 3 5.5
2020-Feb-24 12:55 174 2 gusting 3 5.2
2020-Feb-24 12:50 192 1 gusting 2 5.1
2020-Feb-24 12:45 205 1 gusting 2 4.7
2020-Feb-24 12:40 177 1 gusting 2 4.1
2020-Feb-24 12:35 155 1 gusting 2 3.3
2020-Feb-24 12:30 188 0 gusting 1 3.1
2020-Feb-24 12:25 3.2
2020-Feb-24 12:20 2.9
2020-Feb-24 12:15 2.9
2020-Feb-24 12:10 243 0 gusting 1 2.8
2020-Feb-24 12:05 259 0 gusting 2 2.2
2020-Feb-24 12:00 266 0 gusting 1 2.0
2020-Feb-24 11:55 219 0 gusting 1 2.2
2020-Feb-24 11:50 230 0 gusting 2 2.0
2020-Feb-24 11:45 205 0 gusting 1 2.1
2020-Feb-24 11:40 193 1 gusting 1 2.4
2020-Feb-24 11:35 196 0 gusting 1 2.7
2020-Feb-24 11:30 190 0 gusting 0 2.9
2020-Feb-24 11:25 179 0 gusting 1 3.2
2020-Feb-24 11:20 181 0 gusting 1 3.4
2020-Feb-24 11:15 189 0 gusting 1 3.5
2020-Feb-24 11:10 187 0 gusting 1 3.5
2020-Feb-24 11:05 201 0 gusting 1 4.0
2020-Feb-24 11:00 205 1 gusting 2 4.6
2020-Feb-24 10:55 209 2 gusting 3 4.8
2020-Feb-24 10:50 204 2 gusting 4 4.9
2020-Feb-24 10:45 204 2 gusting 4 5.1
2020-Feb-24 10:40 201 2 gusting 4 4.9
2020-Feb-24 10:35 199 2 gusting 3 4.7
2020-Feb-24 10:30 202 2 gusting 4 4.9
2020-Feb-24 10:25 205 2 gusting 4 5.1
2020-Feb-24 10:20 204 3 gusting 4 5.3
2020-Feb-24 10:15 210 2 gusting 5 5.2
2020-Feb-24 10:10 205 3 gusting 6 5.3
2020-Feb-24 10:05 201 2 gusting 4 4.9
2020-Feb-24 10:00 199 1 gusting 3 4.4
2020-Feb-24 09:55 187 1 gusting 2 4.0
2020-Feb-24 09:50 183 1 gusting 3 3.9
2020-Feb-24 09:45 176 1 gusting 2 3.6
2020-Feb-24 09:40 177 1 gusting 2 3.8
2020-Feb-24 09:35 184 2 gusting 4 4.0
2020-Feb-24 09:30 183 1 gusting 2 4.0
2020-Feb-24 09:25 181 1 gusting 2 4.3
2020-Feb-24 09:20 177 1 gusting 2 4.3
2020-Feb-24 09:15 176 1 gusting 3 4.6
2020-Feb-24 09:10 183 1 gusting 4 4.8
2020-Feb-24 09:05 180 1 gusting 3 4.9
2020-Feb-24 09:00 178 2 gusting 3 5.0
2020-Feb-24 08:55 186 1 gusting 3 5.0
2020-Feb-24 08:50 179 2 gusting 3 4.9
2020-Feb-24 08:45 178 1 gusting 3 5.0
2020-Feb-24 08:40 181 2 gusting 5 5.3
2020-Feb-24 08:35 180 2 gusting 3 5.1
2020-Feb-24 08:30 185 1 gusting 4 4.9
2020-Feb-24 08:25 190 1 gusting 3 4.4
2020-Feb-24 08:20 178 1 gusting 2 4.6
2020-Feb-24 08:15 169 1 gusting 3 4.2
2020-Feb-24 08:10 167 1 gusting 2 3.8
2020-Feb-24 08:05 155 0 gusting 1 3.8
2020-Feb-24 08:00 166 1 gusting 2 3.8
2020-Feb-24 07:55 168 1 gusting 3 3.8
2020-Feb-24 07:50 174 1 gusting 2 3.7
2020-Feb-24 07:45 165 1 gusting 2 3.7
2020-Feb-24 07:40 170 1 gusting 2 3.7
2020-Feb-24 07:35 174 1 gusting 3 3.6
2020-Feb-24 07:30 174 1 gusting 3 3.6
2020-Feb-24 07:25 166 1 gusting 3 3.7
2020-Feb-24 07:20 167 1 gusting 3 3.4
2020-Feb-24 07:15 169 1 gusting 2 3.2
2020-Feb-24 07:10 165 1 gusting 1 3.3
2020-Feb-24 07:05 163 1 gusting 2 3.6
2020-Feb-24 07:00 168 1 gusting 2 3.7
2020-Feb-24 06:55 161 1 gusting 2 3.5
2020-Feb-24 06:50 162 1 gusting 2 3.4
2020-Feb-24 06:45 159 1 gusting 2 3.2
2020-Feb-24 06:40 158 1 gusting 2 3.1
2020-Feb-24 06:35 162 1 gusting 1 2.9
2020-Feb-24 06:30 166 0 gusting 1 2.9
2020-Feb-24 06:25 169 1 gusting 2 2.9
2020-Feb-24 06:20 171 0 gusting 1 3.0
2020-Feb-24 06:15 161 1 gusting 1 3.1
2020-Feb-24 06:10 160 1 gusting 1 3.2
2020-Feb-24 06:05 168 1 gusting 1 3.1
2020-Feb-24 06:00 162 1 gusting 1 3.0
2020-Feb-24 05:55 169 0 gusting 1 2.9
2020-Feb-24 05:50 170 1 gusting 2 3.0
2020-Feb-24 05:45 158 0 gusting 0 3.1
2020-Feb-24 05:40 161 1 gusting 1 3.1
2020-Feb-24 05:35 171 0 gusting 1 3.2
2020-Feb-24 05:30 174 0 gusting 1 3.4
2020-Feb-24 05:25 169 0 gusting 1 3.4
2020-Feb-24 05:20 166 1 gusting 2 3.3
2020-Feb-24 05:15 164 1 gusting 3 3.1
2020-Feb-24 05:10 172 1 gusting 2 3.0
2020-Feb-24 05:05 172 1 gusting 2 3.0
2020-Feb-24 05:00 174 1 gusting 2 2.8
2020-Feb-24 04:55 166 0 gusting 1 2.7
2020-Feb-24 04:50 170 1 gusting 2 2.7
2020-Feb-24 04:45 176 1 gusting 2 2.8
2020-Feb-24 04:40 166 0 gusting 1 2.8
2020-Feb-24 04:35 168 0 gusting 1 2.8
2020-Feb-24 04:30 173 1 gusting 2 2.8
2020-Feb-24 04:25 189 0 gusting 1 2.8
2020-Feb-24 04:20 190 0 gusting 1 2.8
2020-Feb-24 04:15 165 0 gusting 0 2.7
2020-Feb-24 04:10 167 1 gusting 2 2.7
2020-Feb-24 04:05 166 1 gusting 1 2.6
2020-Feb-24 04:00 167 0 gusting 1 2.7
2020-Feb-24 03:55 163 1 gusting 1 2.8
2020-Feb-24 03:50 168 1 gusting 2 2.9
2020-Feb-24 03:45 175 1 gusting 2 2.8
2020-Feb-24 03:40 169 0 gusting 1 2.6
2020-Feb-24 03:35 167 1 gusting 1 2.5
2020-Feb-24 03:30 170 0 gusting 1 2.4
2020-Feb-24 03:25 161 0 gusting 1 2.5
2020-Feb-24 03:20 162 0 gusting 1 2.6
2020-Feb-24 03:15 170 0 gusting 1 2.6
2020-Feb-24 03:10 167 0 gusting 1 2.8
2020-Feb-24 03:05 174 1 gusting 2 2.8
2020-Feb-24 03:00 181 1 gusting 2 2.8
2020-Feb-24 02:55 175 1 gusting 1 2.9
2020-Feb-24 02:50 166 1 gusting 1 2.9
2020-Feb-24 02:45 175 1 gusting 2 2.9
2020-Feb-24 02:40 161 0 gusting 0 3.1
2020-Feb-24 02:35 151 0 gusting 1 3.2
2020-Feb-24 02:30 132 0 gusting 1 3.3
2020-Feb-24 02:25 171 0 gusting 2 3.3
2020-Feb-24 02:20 177 0 gusting 1 3.5
2020-Feb-24 02:15 156 0 gusting 2 3.5
2020-Feb-24 02:10 147 0 gusting 1 3.5
2020-Feb-24 02:05 148 0 gusting 1 3.6
2020-Feb-24 02:00 165 1 gusting 3 3.6
2020-Feb-24 01:55 165 1 gusting 3 3.3
2020-Feb-24 01:50 167 1 gusting 2 3.1
2020-Feb-24 01:45 158 0 gusting 2 3.1
2020-Feb-24 01:40 158 0 gusting 1 3.1
2020-Feb-24 01:35 165 1 gusting 2 3.1
2020-Feb-24 01:30 167 0 gusting 1 3.2
2020-Feb-24 01:25 177 1 gusting 2 3.2
2020-Feb-24 01:20 186 1 gusting 3 3.1
2020-Feb-24 01:15 179 0 gusting 1 3.1
2020-Feb-24 01:10 172 1 gusting 2 3.2
2020-Feb-24 01:05 174 1 gusting 2 3.2
2020-Feb-24 01:00 174 1 gusting 3 3.4
2020-Feb-24 00:55 182 2 gusting 3 3.2
2020-Feb-24 00:50 177 1 gusting 2 3.1
2020-Feb-24 00:45 184 0 gusting 1 3.1
2020-Feb-24 00:40 181 0 gusting 1 3.2
2020-Feb-24 00:35 171 0 gusting 2 3.2
2020-Feb-24 00:30 171 0 gusting 1 3.2
2020-Feb-24 00:25 182 0 gusting 1 3.3
2020-Feb-24 00:20 173 0 gusting 1 3.5
2020-Feb-24 00:15 168 0 gusting 1 3.7
2020-Feb-24 00:10 170 0 gusting 1 3.8
2020-Feb-24 00:05 176 0 gusting 2 4.0
2020-Feb-24 00:00 181 1 gusting 3 4.3
2020-Feb-23 23:55 186 3 gusting 4 4.3
2020-Feb-23 23:50 183 2 gusting 3 4.2
2020-Feb-23 23:45 180 2 gusting 4 4.2
2020-Feb-23 23:40 178 1 gusting 3 4.1
2020-Feb-23 23:35 170 1 gusting 2 4.2
2020-Feb-23 23:30 180 2 gusting 3 4.4
2020-Feb-23 23:25 179 2 gusting 4 4.6
2020-Feb-23 23:20 180 2 gusting 3 4.7
2020-Feb-23 23:15 181 2 gusting 3 4.8
2020-Feb-23 23:10 181 2 gusting 3 4.8
2020-Feb-23 23:05 181 2 gusting 4 5.0
2020-Feb-23 23:00 182 2 gusting 4 4.8
2020-Feb-23 22:55 177 0 gusting 2 4.5
2020-Feb-23 22:50 165 0 gusting 0 4.7
2020-Feb-23 22:45 167 0 gusting 0 5.0
2020-Feb-23 22:40 176 0 gusting 1 5.3
2020-Feb-23 22:35 155 0 gusting 1 5.5
2020-Feb-23 22:30 144 0 gusting 2 5.8
2020-Feb-23 22:25 167 1 gusting 3 6.2
2020-Feb-23 22:20 160 1 gusting 3 6.3
2020-Feb-23 22:15 176 1 gusting 4 6.6
2020-Feb-23 22:10 170 1 gusting 5 7.0
2020-Feb-23 22:05 154 0 gusting 3 7.2
2020-Feb-23 22:00 168 1 gusting 4 7.4
2020-Feb-23 21:55 168 1 gusting 4 7.6
2020-Feb-23 21:50 157 1 gusting 3 7.6
2020-Feb-23 21:45 165 1 gusting 5 7.8
2020-Feb-23 21:40 139 1 gusting 3 7.9
2020-Feb-23 21:35 172 2 gusting 5 8.2
2020-Feb-23 21:30 161 1 gusting 4 8.6
2020-Feb-23 21:25 160 0 gusting 3 8.9
2020-Feb-23 21:20 165 1 gusting 3 9.0
2020-Feb-23 21:15 145 0 gusting 3 9.1
2020-Feb-23 21:10 163 1 gusting 4 9.1
2020-Feb-23 21:05 162 1 gusting 4 9.0
2020-Feb-23 21:00 175 2 gusting 5 9.3
2020-Feb-23 20:55 171 1 gusting 4 9.2
2020-Feb-23 20:50 175 2 gusting 4 9.3
2020-Feb-23 20:45 179 3 gusting 5 9.9
2020-Feb-23 20:40 166 1 gusting 4 10.3
2020-Feb-23 20:35 143 1 gusting 3 10.2
2020-Feb-23 20:30 118 1 gusting 3 10.3
2020-Feb-23 20:25 124 2 gusting 3 10.2
2020-Feb-23 20:20 122 1 gusting 3 10.2
2020-Feb-23 20:15 121 1 gusting 3 10.4
2020-Feb-23 20:10 121 1 gusting 3 10.6
2020-Feb-23 20:05 112 1 gusting 3 10.7
2020-Feb-23 20:00 125 1 gusting 3 11.3
2020-Feb-23 19:55 139 1 gusting 5 11.2
2020-Feb-23 19:50 122 1 gusting 3 11.4
2020-Feb-23 19:45 131 1 gusting 3 11.8
2020-Feb-23 19:40 132 1 gusting 4 11.6
2020-Feb-23 19:35 168 1 gusting 4 11.2
2020-Feb-23 19:30 162 2 gusting 7 11.1
2020-Feb-23 19:25 174 2 gusting 6 11.3
2020-Feb-23 19:20 161 2 gusting 5 11.4
2020-Feb-23 19:15 172 2 gusting 4 11.6
2020-Feb-23 19:10 156 1 gusting 6 11.5
2020-Feb-23 19:05 173 2 gusting 5 11.7
2020-Feb-23 19:00 171 2 gusting 4 11.6
2020-Feb-23 18:55 180 2 gusting 5 11.8
2020-Feb-23 18:50 169 1 gusting 3 11.8
2020-Feb-23 18:45 158 2 gusting 5 11.6
2020-Feb-23 18:40 162 2 gusting 5 11.5
2020-Feb-23 18:35 118 1 gusting 3 10.9
2020-Feb-23 18:30 114 2 gusting 3 10.9
2020-Feb-23 18:25 118 2 gusting 4 10.8
2020-Feb-23 18:20 122 2 gusting 4 11.1
2020-Feb-23 18:15 128 1 gusting 3 11.4
2020-Feb-23 18:10 118 1 gusting 3 11.4
2020-Feb-23 18:05 131 1 gusting 3 11.5
2020-Feb-23 18:00 130 1 gusting 7 11.4
2020-Feb-23 17:55 153 2 gusting 6 11.5
2020-Feb-23 17:50 147 1 gusting 3 11.4
2020-Feb-23 17:45 153 1 gusting 5 11.3
2020-Feb-23 17:40 128 1 gusting 3 11.3
2020-Feb-23 17:35 177 3 gusting 6 11.6
2020-Feb-23 17:30 166 1 gusting 4 11.5
2020-Feb-23 17:25 131 1 gusting 6 11.4
2020-Feb-23 17:20 158 1 gusting 5 11.7
2020-Feb-23 17:15 160 1 gusting 3 11.7
2020-Feb-23 17:10 178 3 gusting 5 11.1
2020-Feb-23 17:05 185 3 gusting 7 11.2
2020-Feb-23 17:00 178 2 gusting 6 11.2
2020-Feb-23 16:55 168 2 gusting 5 11.0
2020-Feb-23 16:50 175 1 gusting 4 11.0
2020-Feb-23 16:45 179 2 gusting 5 11.0
2020-Feb-23 16:40 178 2 gusting 5 10.7
2020-Feb-23 16:35 190 4 gusting 7 10.9
2020-Feb-23 16:30 170 1 gusting 4 10.8
2020-Feb-23 16:25 179 3 gusting 8 11.1
2020-Feb-23 16:20 166 2 gusting 5 11.3
2020-Feb-23 16:15 181 2 gusting 6 11.0
2020-Feb-23 16:10 185 3 gusting 6 10.6
2020-Feb-23 16:05 174 2 gusting 6 10.9
2020-Feb-23 16:00 187 3 gusting 6 10.6
2020-Feb-23 15:55 190 4 gusting 7 10.4
2020-Feb-23 15:50 197 3 gusting 6 10.6
2020-Feb-23 15:45 098 1 gusting 3 10.7
2020-Feb-23 15:40 087 2 gusting 3 10.4
2020-Feb-23 15:35 086 1 gusting 3 10.5
2020-Feb-23 15:30 197 2 gusting 4 10.3
2020-Feb-23 15:25 100 1 gusting 3 9.9
2020-Feb-23 15:20 054 3 gusting 5 10.1
2020-Feb-23 15:15 353 1 gusting 5 10.3
2020-Feb-23 15:10 077 1 gusting 3 9.9
2020-Feb-23 15:05 028 1 gusting 1 9.7
2020-Feb-23 15:00 257 0 gusting 2 9.5
2020-Feb-23 14:55 231 0 gusting 2 9.1
2020-Feb-23 14:50 206 1 gusting 2 8.9
2020-Feb-23 14:45 102 0 gusting 1 8.6
2020-Feb-23 14:40 171 1 gusting 1 8.2
2020-Feb-23 14:35 021 1 gusting 2 7.6
2020-Feb-23 14:30 316 1 gusting 1 7.2
2020-Feb-23 14:25 334 0 gusting 1 6.7
2020-Feb-23 14:20 312 1 gusting 2 6.6
2020-Feb-23 14:15 307 1 gusting 1 6.2
2020-Feb-23 14:10 309 0 gusting 1 5.9
2020-Feb-23 14:05 315 1 gusting 2 5.4
2020-Feb-23 14:00 297 1 gusting 2 5.0
2020-Feb-23 13:55 298 1 gusting 2 4.9
2020-Feb-23 13:50 315 1 gusting 2 4.6
2020-Feb-23 13:45 306 0 gusting 1 4.3
2020-Feb-23 13:40 303 0 gusting 1 3.9
2020-Feb-23 13:35 314 1 gusting 2 3.4
2020-Feb-23 13:30 350 0 gusting 2 2.9
2020-Feb-23 13:25 007 0 gusting 0 2.2
2020-Feb-23 13:20 006 0 gusting 1 1.6
2020-Feb-23 13:15 006 0 gusting 1 0.8
2020-Feb-23 13:10 006 0 gusting 0 0.2
2020-Feb-23 13:05 006 0 gusting 0 -0.1
2020-Feb-23 13:00 006 0 gusting 0 -0.3
2020-Feb-23 12:55 011 0 gusting 0 -0.6
2020-Feb-23 12:50 019 0 gusting 0 -0.9
2020-Feb-23 12:45 019 0 gusting 0 -1.1
2020-Feb-23 12:40 019 0 gusting 1 -1.3
2020-Feb-23 12:35 012 1 gusting 1 -1.9
2020-Feb-23 12:30 294 0 gusting 0 -2.3
2020-Feb-23 12:25 294 0 gusting 1 -2.5
2020-Feb-23 12:20 293 0 gusting 0 -2.5
2020-Feb-23 12:15 292 0 gusting 0 -2.6
2020-Feb-23 12:10 289 0 gusting 1 -2.7
2020-Feb-23 12:05 292 0 gusting 1 -2.8
2020-Feb-23 12:00 294 0 gusting 0 -2.9
2020-Feb-23 11:55 294 0 gusting 0 -2.9
2020-Feb-23 11:50 294 0 gusting 0 -2.7
2020-Feb-23 11:45 294 0 gusting 1 -2.9
2020-Feb-23 11:40 294 0 gusting 0 -2.9
2020-Feb-23 11:35 294 0 gusting 0 -2.4
2020-Feb-23 11:30 294 0 gusting 1 -2.3
2020-Feb-23 11:25 293 0 gusting 1 -2.1
2020-Feb-23 11:20 244 0 gusting 0 -2.2
2020-Feb-23 11:15 -2.1
2020-Feb-23 11:10 -1.8
2020-Feb-23 11:05 244 0 gusting 0 -1.7
2020-Feb-23 11:00 244 0 gusting 0 -2.0
2020-Feb-23 10:55 -2.2
2020-Feb-23 10:50 244 0 gusting 0 -2.0
2020-Feb-23 10:45 244 0 gusting 1 -1.7
2020-Feb-23 10:40 244 0 gusting 1 -1.8
2020-Feb-23 10:35 243 0 gusting 1 -1.5
2020-Feb-23 10:30 238 0 gusting 1 -1.5
2020-Feb-23 10:25 240 1 gusting 2 -1.3
2020-Feb-23 10:20 314 0 gusting 1 -1.7
2020-Feb-23 10:15 287 1 gusting 2 -1.0
2020-Feb-23 10:10 026 0 gusting 1 -0.8
2020-Feb-23 10:05 025 0 gusting 1 -0.8
2020-Feb-23 10:00 027 0 gusting 1 -1.1
2020-Feb-23 09:55 027 0 gusting 0 -1.1
2020-Feb-23 09:50 026 0 gusting 1 -0.7
2020-Feb-23 09:45 017 0 gusting 2 -0.5
2020-Feb-23 09:40 247 0 gusting 0 -0.2
2020-Feb-23 09:35 236 0 gusting 1 0.1
2020-Feb-23 09:30 236 0 gusting 1 0.2
2020-Feb-23 09:25 232 0 gusting 1 0.4
2020-Feb-23 09:20 251 0 gusting 1 0.5
2020-Feb-23 09:15 238 1 gusting 2 0.6
2020-Feb-23 09:10 236 2 gusting 3 0.7
2020-Feb-23 09:05 235 2 gusting 4 0.8
2020-Feb-23 09:00 231 3 gusting 5 0.9
2020-Feb-23 08:55 224 3 gusting 6 0.9
2020-Feb-23 08:50 228 3 gusting 6 0.8
2020-Feb-23 08:45 229 3 gusting 5 0.8
2020-Feb-23 08:40 226 3 gusting 5 0.9
2020-Feb-23 08:35 230 3 gusting 5 1.0
2020-Feb-23 08:30 230 3 gusting 6 1.0
2020-Feb-23 08:25 234 3 gusting 5 1.0
2020-Feb-23 08:20 235 3 gusting 5 1.0
2020-Feb-23 08:15 238 3 gusting 5 1.0
2020-Feb-23 08:10 241 3 gusting 5 1.1
2020-Feb-23 08:05 232 3 gusting 5 1.1
2020-Feb-23 08:00 224 3 gusting 5 1.0
2020-Feb-23 07:55 227 2 gusting 3 1.0
2020-Feb-23 07:50 232 2 gusting 3 1.1
2020-Feb-23 07:45 240 2 gusting 4 1.3
2020-Feb-23 07:40 251 2 gusting 3 1.3
2020-Feb-23 07:35 255 2 gusting 5 1.4
2020-Feb-23 07:30 249 2 gusting 4 1.3
2020-Feb-23 07:25 246 2 gusting 4 1.4
2020-Feb-23 07:20 229 2 gusting 4 1.5
2020-Feb-23 07:15 225 3 gusting 5 1.6
2020-Feb-23 07:10 224 2 gusting 4 1.7
2020-Feb-23 07:05 230 3 gusting 4 1.7
2020-Feb-23 07:00 231 2 gusting 5 1.9
2020-Feb-23 06:55 230 3 gusting 5 1.9
2020-Feb-23 06:50 232 3 gusting 6 1.9
2020-Feb-23 06:45 235 3 gusting 6 1.9
2020-Feb-23 06:40 226 3 gusting 5 1.9
2020-Feb-23 06:35 229 3 gusting 4 2.0
2020-Feb-23 06:30 231 3 gusting 7 1.9
2020-Feb-23 06:25 230 3 gusting 5 1.8
2020-Feb-23 06:20 228 3 gusting 5 1.9
2020-Feb-23 06:15 226 3 gusting 4 1.8
2020-Feb-23 06:10 222 2 gusting 5 1.8
2020-Feb-23 06:05 233 3 gusting 6 1.9
2020-Feb-23 06:00 231 3 gusting 6 2.0
2020-Feb-23 05:55 230 3 gusting 5 2.0
2020-Feb-23 05:50 227 3 gusting 4 2.0
2020-Feb-23 05:45 227 3 gusting 5 2.0
2020-Feb-23 05:40 232 3 gusting 5 2.0
2020-Feb-23 05:35 237 3 gusting 5 2.0
2020-Feb-23 05:30 237 3 gusting 4 2.0
2020-Feb-23 05:25 229 2 gusting 4 1.9
2020-Feb-23 05:20 225 2 gusting 4 2.1
2020-Feb-23 05:15 225 3 gusting 5 2.1
2020-Feb-23 05:10 223 3 gusting 6 2.2
2020-Feb-23 05:05 215 3 gusting 6 2.1
2020-Feb-23 05:00 214 3 gusting 6 2.2
2020-Feb-23 04:55 213 2 gusting 5 2.1
2020-Feb-23 04:50 215 2 gusting 4 2.2
2020-Feb-23 04:45 208 2 gusting 4 2.2
2020-Feb-23 04:40 217 3 gusting 5 2.4
2020-Feb-23 04:35 214 4 gusting 6 2.4
2020-Feb-23 04:30 215 4 gusting 6 2.4
2020-Feb-23 04:25 216 3 gusting 7 2.4
2020-Feb-23 04:20 205 3 gusting 6 2.5
2020-Feb-23 04:15 206 3 gusting 6 2.6
2020-Feb-23 04:10 200 4 gusting 6 2.7
2020-Feb-23 04:05 205 4 gusting 6 2.7
2020-Feb-23 04:00 213 4 gusting 7 2.8
2020-Feb-23 03:55 207 4 gusting 6 2.9
2020-Feb-23 03:50 209 4 gusting 6 2.9
2020-Feb-23 03:45 211 4 gusting 7 2.9
2020-Feb-23 03:40 208 3 gusting 6 2.9
2020-Feb-23 03:35 209 3 gusting 6 2.9
2020-Feb-23 03:30 203 4 gusting 6 3.1
2020-Feb-23 03:25 209 4 gusting 6 3.0
2020-Feb-23 03:20 203 3 gusting 5 2.9
2020-Feb-23 03:15 206 3 gusting 5 3.1
2020-Feb-23 03:10 205 3 gusting 6 3.2
2020-Feb-23 03:05 213 3 gusting 4 3.4
2020-Feb-23 03:00 222 3 gusting 4 3.3
2020-Feb-23 02:55 223 3 gusting 7 3.3
2020-Feb-23 02:50 213 4 gusting 6 3.4
2020-Feb-23 02:45 222 3 gusting 5 3.3
2020-Feb-23 02:40 210 2 gusting 5 3.2
2020-Feb-23 02:35 205 2 gusting 4 3.3
2020-Feb-23 02:30 202 3 gusting 5 3.4
2020-Feb-23 02:25 206 3 gusting 6 3.5
2020-Feb-23 02:20 210 3 gusting 6 3.6
2020-Feb-23 02:15 216 3 gusting 5 3.6
2020-Feb-23 02:10 214 3 gusting 5 3.6
2020-Feb-23 02:05 207 3 gusting 5 3.8
2020-Feb-23 02:00 199 3 gusting 5 3.9
2020-Feb-23 01:55 198 3 gusting 6 4.0
2020-Feb-23 01:50 206 3 gusting 6 3.9
2020-Feb-23 01:45 210 3 gusting 5 4.0
2020-Feb-23 01:40 215 2 gusting 4 3.9
2020-Feb-23 01:35 211 3 gusting 5 3.8
2020-Feb-23 01:30 207 3 gusting 5 4.0
2020-Feb-23 01:25 213 3 gusting 4 4.1
2020-Feb-23 01:20 195 2 gusting 4 4.2
2020-Feb-23 01:15 202 3 gusting 5 4.4
2020-Feb-23 01:10 218 4 gusting 6 4.3
2020-Feb-23 01:05 213 3 gusting 5 4.4
2020-Feb-23 01:00 207 2 gusting 4 4.5
2020-Feb-23 00:55 206 2 gusting 5 4.4
2020-Feb-23 00:50 202 2 gusting 4 4.4
2020-Feb-23 00:45 198 2 gusting 3 4.3
2020-Feb-23 00:40 205 2 gusting 3 4.5
2020-Feb-23 00:35 209 3 gusting 5 4.2
2020-Feb-23 00:30 182 2 gusting 4 4.3
2020-Feb-23 00:25 188 2 gusting 3 4.5
2020-Feb-23 00:20 203 2 gusting 3 4.8
2020-Feb-23 00:15 204 2 gusting 4 4.9
2020-Feb-23 00:10 206 2 gusting 4 5.2
2020-Feb-23 00:05 206 2 gusting 4 5.0
2020-Feb-23 00:00 199 2 gusting 3 4.9
2020-Feb-22 23:55 202 2 gusting 4 5.1
2020-Feb-22 23:50 215 2 gusting 3 4.8
2020-Feb-22 23:45 204 2 gusting 4 4.7
2020-Feb-22 23:40 186 1 gusting 2 4.8
2020-Feb-22 23:35 179 1 gusting 2 5.0
2020-Feb-22 23:30 184 1 gusting 2 5.4
2020-Feb-22 23:25 195 2 gusting 3 5.7
2020-Feb-22 23:20 210 1 gusting 3 6.0
2020-Feb-22 23:15 201 1 gusting 2 6.2
2020-Feb-22 23:10 218 2 gusting 3 6.6
2020-Feb-22 23:05 228 2 gusting 4 6.8
2020-Feb-22 23:00 226 2 gusting 4 6.9
2020-Feb-22 22:55 236 3 gusting 6 7.2
2020-Feb-22 22:50 229 3 gusting 5 7.4
2020-Feb-22 22:45 230 4 gusting 8 7.5
2020-Feb-22 22:40 235 5 gusting 8 7.7
2020-Feb-22 22:35 237 6 gusting 9 7.9
2020-Feb-22 22:30 243 5 gusting 9 8.1
2020-Feb-22 22:25 246 6 gusting 9 8.2
2020-Feb-22 22:20 233 4 gusting 8 8.4
2020-Feb-22 22:15 231 4 gusting 6 8.5
2020-Feb-22 22:10 237 4 gusting 8 8.6
2020-Feb-22 22:05 231 5 gusting 8 8.8
2020-Feb-22 22:00 235 5 gusting 8 9.0
2020-Feb-22 21:55 247 5 gusting 7 9.2
2020-Feb-22 21:50 253 5 gusting 8 9.4
2020-Feb-22 21:45 267 5 gusting 9 9.6
2020-Feb-22 21:40 261 6 gusting 10 9.6
2020-Feb-22 21:35 256 6 gusting 10 9.6
2020-Feb-22 21:30 274 7 gusting 10 9.7
2020-Feb-22 21:25 270 7 gusting 10 9.8
2020-Feb-22 21:20 257 5 gusting 9 9.8
2020-Feb-22 21:15 251 7 gusting 12 9.7
2020-Feb-22 21:10 258 7 gusting 12 9.7
2020-Feb-22 21:05 269 8 gusting 11 9.7
2020-Feb-22 21:00 279 8 gusting 14 9.7
2020-Feb-22 20:55 281 8 gusting 14 9.8
2020-Feb-22 20:50 274 8 gusting 13 9.8
2020-Feb-22 20:45 286 7 gusting 15 10.0
2020-Feb-22 20:40 279 6 gusting 12 9.8
2020-Feb-22 20:35 278 8 gusting 13 10.0
2020-Feb-22 20:30 275 6 gusting 9 10.1
2020-Feb-22 20:25 272 6 gusting 10 9.8
2020-Feb-22 20:20 251 8 gusting 13 9.7
2020-Feb-22 20:15 260 7 gusting 12 9.8
2020-Feb-22 20:10 255 7 gusting 11 9.8
2020-Feb-22 20:05 262 7 gusting 13 9.8
2020-Feb-22 20:00 269 6 gusting 11 9.9
2020-Feb-22 19:55 254 6 gusting 9 9.8
2020-Feb-22 19:50 255 7 gusting 11 10.0
2020-Feb-22 19:45 261 6 gusting 12 10.0
2020-Feb-22 19:40 279 7 gusting 11 9.9
2020-Feb-22 19:35 262 6 gusting 11 9.9
2020-Feb-22 19:30 263 7 gusting 10 10.2
2020-Feb-22 19:25 289 6 gusting 11 9.9
2020-Feb-22 19:20 255 8 gusting 11 9.6
2020-Feb-22 19:15 274 7 gusting 12 10.0
2020-Feb-22 19:10 251 7 gusting 12 9.6
2020-Feb-22 19:05 257 6 gusting 11 9.4
2020-Feb-22 19:00 271 8 gusting 12 9.4
2020-Feb-22 18:55 254 6 gusting 10 9.4
2020-Feb-22 18:50 265 6 gusting 12 9.6
2020-Feb-22 18:45 275 5 gusting 10 9.3
2020-Feb-22 18:40 268 6 gusting 10 9.2
2020-Feb-22 18:35 248 6 gusting 12 9.2
2020-Feb-22 18:30 268 6 gusting 10 8.8
2020-Feb-22 18:25 277 7 gusting 11 8.7
2020-Feb-22 18:20 264 7 gusting 11 8.9
2020-Feb-22 18:15 260 7 gusting 13 8.8
2020-Feb-22 18:10 285 7 gusting 12 8.6
2020-Feb-22 18:05 273 8 gusting 13 8.6
2020-Feb-22 18:00 252 6 gusting 9 8.6
2020-Feb-22 17:55 254 8 gusting 11 8.6
2020-Feb-22 17:50 265 6 gusting 9 8.7
2020-Feb-22 17:45 265 6 gusting 11 8.5
2020-Feb-22 17:40 255 7 gusting 12 8.5
2020-Feb-22 17:35 262 7 gusting 12 8.3
2020-Feb-22 17:30 259 8 gusting 13 8.4
2020-Feb-22 17:25 281 6 gusting 12 8.3
2020-Feb-22 17:20 252 7 gusting 10 8.1
2020-Feb-22 17:15 288 6 gusting 12 7.7
2020-Feb-22 17:10 281 7 gusting 13 7.7
2020-Feb-22 17:05 260 7 gusting 12 7.6
2020-Feb-22 17:00 257 6 gusting 11 7.5